When you browse on this site, cookies collect data to enhance your experience and personalize the content and advertising you see.
Visit our Privacy Policy to learn more. By continuing to use the site, you agree to this use of cookies and data.
  • In United Kingdom
  • List of Countries
  • For 7 days
  • Water Temperature
  • Weather Map
  • Weather Widgets
  • user-avatar
    Login

    Hourly Weather Potosi

    Today, 17 November, Sunday

    Time Temperature Precipitation Wind Pressure Humidity
    00:00 +7°C° 0 mm 2 mps 466 mmHg 59%
    01:00 +8°C° 0 mm 1 mps 466 mmHg 62%
    02:00 +7°C° 0 mm 1 mps 466 mmHg 65%
    03:00 +7°C° 0 mm 1 mps 465 mmHg 68%
    04:00 +5°C° 0 mm 0 mps 465 mmHg 71%
    05:00 +5°C° 0 mm 0 mps 465 mmHg 74%
    06:00 +6°C° 0 mm 0 mps 466 mmHg 67%
    07:00 +6°C° 0 mm 0 mps 467 mmHg 60%
    08:00 +7°C° 0 mm 0 mps 467 mmHg 54%
    09:00 +10°C° 0 mm 1 mps 468 mmHg 46%
    10:00 +10°C° 0 mm 2 mps 469 mmHg 38%
    11:00 +11°C° 0 mm 3 mps 470 mmHg 30%
    12:00 +12°C° 0 mm 4 mps 469 mmHg 30%
    13:00 +13°C° 0 mm 5 mps 469 mmHg 29%
    14:00 +13°C° 0 mm 6 mps 469 mmHg 29%
    15:00 +13°C° 0 mm 6 mps 468 mmHg 32%
    16:00 +11°C° 0 mm 7 mps 468 mmHg 36%
    17:00 +11°C° 0 mm 7 mps 467 mmHg 39%
    18:00 +9°C° 0 mm 7 mps 467 mmHg 46%
    19:00 +8°C° 0 mm 6 mps 467 mmHg 53%
    20:00 +7°C° 0 mm 5 mps 467 mmHg 59%
    21:00 +6°C° 0 mm 4 mps 467 mmHg 62%
    22:00 +7°C° 0 mm 3 mps 467 mmHg 64%
    23:00 +7°C° 0 mm 2 mps 467 mmHg 66%

    Tomorrow, 18 November, Monday

    Time Temperature Precipitation Wind Pressure Humidity
    00:00 +6°C° 0 mm 2 mps 467 mmHg 68%
    01:00 +7°C° 0 mm 1 mps 466 mmHg 70%
    02:00 +7°C° 0 mm 1 mps 466 mmHg 72%
    03:00 +6°C° 0 mm 1 mps 466 mmHg 74%
    04:00 +6°C° 0 mm 1 mps 466 mmHg 76%
    05:00 +5°C° 0 mm 0 mps 466 mmHg 79%
    06:00 +6°C° 0 mm 0 mps 466 mmHg 72%
    07:00 +6°C° 0 mm 0 mps 467 mmHg 66%
    08:00 +7°C° 0 mm 0 mps 468 mmHg 60%
    09:00 +9°C° 0 mm 2 mps 469 mmHg 50%
    10:00 +10°C° 0 mm 3 mps 470 mmHg 39%
    11:00 +12°C° 0 mm 4 mps 471 mmHg 29%
    12:00 +12°C° 0 mm 5 mps 470 mmHg 30%
    13:00 +11°C° 0 mm 6 mps 470 mmHg 30%
    14:00 +12°C° 0 mm 7 mps 470 mmHg 31%
    15:00 +11°C° 0 mm 7 mps 469 mmHg 34%
    16:00 +11°C° 0 mm 8 mps 469 mmHg 37%
    17:00 +10°C° 0 mm 8 mps 468 mmHg 41%
    18:00 +9°C° 0 mm 8 mps 468 mmHg 47%
    19:00 +6°C° 0 mm 7 mps 468 mmHg 53%
    20:00 +5°C° 0 mm 6 mps 468 mmHg 60%
    21:00 +6°C° 0.1 mm 5 mps 468 mmHg 63%
    22:00 +5°C° 0.1 mm 4 mps 468 mmHg 66%
    23:00 +5°C° 0.1 mm 3 mps 469 mmHg 69%

    Day after tomorrow, 19 November, Tuesday

    Time Temperature Precipitation Wind Pressure Humidity
    00:00 +5°C° 0 mm 3 mps 468 mmHg 69%
    01:00 +5°C° 0 mm 2 mps 468 mmHg 69%
    02:00 +5°C° 0 mm 2 mps 467 mmHg 68%
    03:00 +5°C° 0 mm 2 mps 467 mmHg 68%
    04:00 +6°C° 0 mm 1 mps 467 mmHg 69%
    05:00 +5°C° 0 mm 1 mps 467 mmHg 69%
    06:00 +6°C° 0 mm 1 mps 468 mmHg 65%
    07:00 +6°C° 0 mm 1 mps 468 mmHg 61%
    08:00 +7°C° 0 mm 1 mps 469 mmHg 58%
    09:00 +7°C° 0 mm 2 mps 470 mmHg 49%
    10:00 +9°C° 0 mm 3 mps 470 mmHg 39%
    11:00 +10°C° 0 mm 3 mps 471 mmHg 30%
    12:00 +11°C° 0 mm 4 mps 471 mmHg 29%
    13:00 +12°C° 0 mm 5 mps 471 mmHg 28%
    14:00 +11°C° 0 mm 6 mps 471 mmHg 28%
    15:00 +11°C° 0 mm 7 mps 470 mmHg 31%
    16:00 +10°C° 0 mm 7 mps 469 mmHg 35%
    17:00 +10°C° 0 mm 8 mps 468 mmHg 39%
    18:00 +9°C° 0 mm 7 mps 468 mmHg 42%
    19:00 +8°C° 0 mm 7 mps 468 mmHg 46%
    20:00 +7°C° 0 mm 6 mps 468 mmHg 50%
    21:00 +7°C° 0 mm 5 mps 468 mmHg 52%
    22:00 +6°C° 0 mm 4 mps 468 mmHg 55%
    23:00 +7°C° 0 mm 3 mps 468 mmHg 57%

    20 November, Wednesday

    Time Temperature Precipitation Wind Pressure Humidity
    00:00 +5°C° 0 mm 3 mps 468 mmHg 59%
    01:00 +6°C° 0 mm 2 mps 467 mmHg 61%
    02:00 +5°C° 0 mm 2 mps 467 mmHg 63%
    03:00 +5°C° 0 mm 2 mps 467 mmHg 66%
    04:00 +5°C° 0 mm 2 mps 467 mmHg 68%
    05:00 +5°C° 0 mm 1 mps 466 mmHg 70%
    06:00 +6°C° 0 mm 1 mps 467 mmHg 66%
    07:00 +7°C° 0 mm 1 mps 468 mmHg 63%
    08:00 +7°C° 0 mm 1 mps 468 mmHg 59%
    09:00 +9°C° 0 mm 1 mps 469 mmHg 52%
    10:00 +10°C° 0 mm 2 mps 470 mmHg 45%
    11:00 +12°C° 0 mm 2 mps 471 mmHg 39%
    12:00 +12°C° 0 mm 3 mps 471 mmHg 37%
    13:00 +13°C° 0 mm 4 mps 470 mmHg 35%
    14:00 +14°C° 0 mm 4 mps 470 mmHg 33%
    15:00 +13°C° 0 mm 5 mps 470 mmHg 33%
    16:00 +13°C° 0 mm 5 mps 469 mmHg 34%
    17:00 +13°C° 0 mm 5 mps 469 mmHg 35%
    18:00 +12°C° 0 mm 5 mps 468 mmHg 40%
    19:00 +11°C° 0 mm 4 mps 468 mmHg 45%
    20:00 +10°C° 0 mm 4 mps 468 mmHg 50%
    21:00 +9°C° 0 mm 3 mps 468 mmHg 52%
    22:00 +9°C° 0 mm 2 mps 468 mmHg 55%
    23:00 +10°C° 0 mm 1 mps 468 mmHg 58%

    21 November, Thursday

    Time Temperature Precipitation Wind Pressure Humidity
    00:00 +9°C° 0 mm 1 mps 467 mmHg 60%
    01:00 +9°C° 0 mm 1 mps 467 mmHg 63%
    02:00 +9°C° 0 mm 1 mps 467 mmHg 66%
    03:00 +8°C° 0 mm 1 mps 466 mmHg 69%
    04:00 +8°C° 0 mm 1 mps 466 mmHg 72%
    05:00 +7°C° 0 mm 0 mps 466 mmHg 74%
    06:00 +7°C° 0 mm 0 mps 467 mmHg 69%
    07:00 +9°C° 0 mm 1 mps 467 mmHg 64%
    08:00 +10°C° 0 mm 1 mps 468 mmHg 58%
    09:00 +11°C° 0 mm 1 mps 469 mmHg 53%
    10:00 +13°C° 0 mm 2 mps 470 mmHg 47%
    11:00 +13°C° 0 mm 3 mps 470 mmHg 41%
    12:00 +14°C° 0.3 mm 3 mps 470 mmHg 41%
    13:00 +14°C° 0.3 mm 4 mps 470 mmHg 41%
    14:00 +15°C° 0.3 mm 5 mps 469 mmHg 41%
    15:00 +14°C° 0.6 mm 6 mps 469 mmHg 44%
    16:00 +14°C° 0.6 mm 7 mps 468 mmHg 46%
    17:00 +12°C° 0.6 mm 8 mps 468 mmHg 49%
    18:00 +11°C° 1.6 mm 6 mps 468 mmHg 56%
    19:00 +9°C° 1.6 mm 5 mps 467 mmHg 62%
    20:00 +8°C° 1.6 mm 4 mps 467 mmHg 69%
    21:00 +9°C° 0.9 mm 3 mps 467 mmHg 66%
    22:00 +9°C° 0.9 mm 3 mps 468 mmHg 62%
    23:00 +9°C° 0.9 mm 2 mps 468 mmHg 59%

    22 November, Friday

    Time Temperature Precipitation Wind Pressure Humidity
    00:00 +9°C° 0 mm 2 mps 468 mmHg 58%
    01:00 +9°C° 0 mm 2 mps 468 mmHg 57%
    02:00 +10°C° 0 mm 1 mps 467 mmHg 57%
    03:00 +10°C° 0 mm 1 mps 467 mmHg 61%
    04:00 +9°C° 0 mm 1 mps 467 mmHg 66%
    05:00 +9°C° 0 mm 1 mps 466 mmHg 70%
    06:00 +9°C° 0 mm 1 mps 467 mmHg 66%
    07:00 +10°C° 0 mm 1 mps 467 mmHg 62%
    08:00 +10°C° 0 mm 1 mps 468 mmHg 57%
    09:00 +12°C° 0.1 mm 1 mps 469 mmHg 53%
    10:00 +13°C° 0.1 mm 2 mps 469 mmHg 48%
    11:00 +13°C° 0.1 mm 3 mps 470 mmHg 43%
    12:00 +13°C° 0.6 mm 3 mps 469 mmHg 44%
    13:00 +13°C° 0.6 mm 3 mps 469 mmHg 44%
    14:00 +13°C° 0.6 mm 4 mps 469 mmHg 44%
    15:00 +13°C° 0.8 mm 5 mps 468 mmHg 48%
    16:00 +11°C° 0.8 mm 6 mps 467 mmHg 51%
    17:00 +11°C° 0.8 mm 7 mps 467 mmHg 54%
    18:00 +10°C° 0.4 mm 6 mps 467 mmHg 59%
    19:00 +9°C° 0.4 mm 6 mps 467 mmHg 65%
    20:00 +8°C° 0.4 mm 5 mps 467 mmHg 70%
    21:00 +8°C° 0.2 mm 4 mps 467 mmHg 70%
    22:00 +9°C° 0.2 mm 2 mps 467 mmHg 71%
    23:00 +9°C° 0.2 mm 1 mps 468 mmHg 71%
    Show more